Wind_Speed
21 24 23 21 27 29 31 37 48 52 48 46 41 40 38 37 31 27 28 30 31 32 31 28 27 26 24 21 18 17 15 14 13 11 11 11 11 11 12 15 19 22 25
22 24 25 23 21 26 32 37 43 54 57 53 46 46 45 42 39 33 30 30 33 33 34 33 31 29 27 24 21 18 16 15 15 13 12 12 13 13 13 16 19 23 28
24 25 26 27 24 26 24 33 42 50 60 61 56 51 50 49 45 41 37 34 33 35 35 34 33 32 30 26 24 20 19 17 17 15 14 14 14 15 15 18 20 24 28
27 27 28 27 24 24 25 26 34 48 57 66 65 57 53 53 52 49 43 40 38 36 37 36 35 35 32 29 27 24 21 20 19 17 17 17 16 17 17 19 22 24 28
30 29 28 30 30 28 25 27 31 35 57 64 71 64 60 55 57 55 50 45 43 40 38 38 37 37 35 33 31 28 25 23 22 19 19 19 19 19 20 21 23 25 28
31 31 30 32 33 33 32 31 33 36 42 65 67 71 66 58 59 57 56 51 47 44 42 39 38 38 37 36 35 32 29 26 24 22 21 21 22 22 22 23 24 26 28
32 33 33 34 35 37 37 38 36 43 37 54 70 73 71 64 52 60 58 57 52 49 45 42 40 39 38 37 36 34 32 29 27 24 23 23 24 25 25 25 26 27 28
33 33 34 35 37 38 40 42 45 46 37 47 65 57 71 65 66 58 62 55 57 53 50 47 44 42 40 39 38 36 34 32 30 27 26 26 27 27 28 27 28 28 28
33 34 35 35 37 38 39 44 47 51 43 43 69 66 65 64 68 61 60 60 61 59 55 53 49 47 45 43 41 39 37 34 32 31 29 29 29 29 30 29 30 29 29
34 35 34 36 37 39 40 42 48 50 45 39 62 60 61 74 67 67 68 57 66 65 60 57 55 52 50 48 45 43 41 38 36 35 32 31 32 33 31 31 32 30 31
36 36 36 36 37 39 41 41 43 49 46 35 56 68 46 68 82 70 62 54 64 64 66 62 58 56 55 52 49 47 45 43 40 38 36 34 34 35 34 33 33 32 32
37 37 37 39 39 39 40 40 39 42 47 32 50 75 43 54 66 80 80 61 62 64 68 67 62 59 57 57 55 52 50 48 45 43 40 39 37 37 36 35 34 33 32
38 38 40 41 41 40 39 41 40 37 32 25 37 50 47 36 43 56 61 65 77 67 63 64 64 63 62 60 58 57 56 53 51 47 45 43 41 39 38 36 35 33 33
42 42 43 43 41 42 41 40 40 34 28 21 24 44 57 59 60 59 48 53 72 76 58 58 65 70 68 67 63 61 59 57 55 52 49 46 44 41 40 37 35 34 33
43 44 45 45 44 41 40 36 34 37 33 31 28 30 41 47 46 42 63 57 59 67 63 58 56 64 69 70 68 67 63 60 58 55 52 49 47 44 43 39 36 35 34
44 45 46 46 44 43 41 41 40 40 41 41 39 40 38 43 47 49 46 52 69 60 58 54 51 56 63 71 73 70 68 66 64 59 55 53 50 46 45 42 38 37 35
46 47 47 46 44 45 46 48 48 48 48 48 49 50 49 50 50 53 51 52 54 68 64 61 61 57 55 58 70 75 72 71 67 62 60 56 53 47 48 44 39 36 36
48 47 47 48 48 49 50 53 54 55 56 56 56 58 59 59 59 58 58 56 57 60 80 81 75 64 60 55 52 54 69 77 72 68 65 61 55 50 48 44 41 37 40
50 48 49 51 52 54 57 58 59 60 60 61 61 63 65 66 68 68 67 65 63 60 65 75 84 79 79 71 62 52 56 68 72 74 68 62 55 53 47 47 42 40 40
52 55 57 59 61 63 63 63 63 64 64 65 66 67 68 70 72 74 76 76 75 69 66 68 66 70 86 79 71 61 54 54 62 67 71 71 57 53 50 48 46 42 41
60 63 66 67 68 68 68 68 68 68 68 69 70 71 73 75 78 81 81 80 79 79 74 67 70 65 70 72 85 76 63 53 55 61 62 62 69 64 55 50 48 45 43
65 67 70 73 74 74 74 73 72 72 73 73 73 75 77 80 82 84 84 83 79 79 80 73 67 66 63 68 75 80 74 64 57 56 63 59 57 67 62 50 48 50 43
73 72 72 73 74 75 75 76 76 74 74 76 77 78 80 79 80 80 80 81 80 81 81 79 72 67 65 64 68 75 84 65 64 62 61 64 55 58 59 55 55 51 42
73 71 73 77 76 78 79 79 78 77 77 76 75 75 75 74 74 76 76 79 81 81 80 79 75 69 66 66 67 76 84 92 68 61 60 63 60 60 56 58 58 54 50
69 71 74 75 77 78 78 79 79 79 78 75 72 70 71 72 75 76 77 81 79 77 75 74 72 70 69 68 70 71 77 78 75 70 60 59 59 66 61 56 53 53 51
69 72 76 76 76 77 77 75 73 74 73 72 71 71 72 74 74 72 72 68 70 72 70 69 70 68 67 69 67 72 75 77 77 80 74 67 69 70 61 52 50 53 43
Wind_Direction
291 286 283 284 278 292 280 263 248 245 242 243 244 250 248 246 240 240 242 239 231 226 223 222 222 223 226 227 229 233 238 246 256 263 271 280 294 308 315 323 335 342 344
294 296 291 284 285 278 285 269 255 243 243 240 236 243 247 246 244 237 239 240 238 232 227 226 227 229 230 232 232 237 243 250 257 262 267 276 290 302 307 318 324 335 343
295 298 300 292 288 282 297 272 258 249 241 241 237 233 240 244 244 241 234 237 238 240 237 233 232 233 234 236 238 239 245 250 255 262 268 273 287 298 302 309 319 330 339
294 297 303 297 293 294 292 320 269 251 244 239 240 234 232 237 242 243 238 233 236 236 239 241 240 240 240 240 244 248 251 254 255 261 267 275 285 296 302 306 313 323 334
293 297 304 304 303 305 304 306 326 273 246 238 238 238 239 229 237 241 243 237 235 236 236 238 241 244 246 248 250 252 254 257 261 264 269 276 287 296 302 305 311 318 330
294 298 305 305 310 309 310 312 316 316 262 240 235 233 238 236 232 235 239 241 238 237 238 239 240 241 244 249 252 255 256 258 261 266 271 278 286 294 300 305 309 316 327
294 298 303 307 309 310 314 315 313 322 286 242 236 234 233 237 232 236 233 236 238 238 238 239 243 245 246 247 252 256 259 261 263 266 271 278 284 291 297 302 308 315 324
292 296 302 306 310 311 313 314 318 320 301 251 226 236 236 235 235 237 237 232 236 236 238 238 239 242 245 249 251 254 257 260 263 265 268 273 280 288 294 300 306 312 321
291 294 299 304 308 310 311 315 318 322 313 265 225 228 234 227 236 228 238 234 238 234 235 236 238 240 242 244 247 251 253 256 259 262 265 270 277 283 290 297 302 309 317
290 293 297 302 307 309 311 316 317 323 317 270 225 225 239 230 236 236 230 227 232 234 233 235 236 238 241 243 244 246 250 253 255 258 261 267 274 279 286 293 298 306 313
291 294 296 300 305 305 309 314 318 325 329 286 229 219 251 232 233 239 228 230 234 234 236 234 236 238 241 243 244 246 248 250 253 257 261 265 269 276 283 289 294 302 310
290 293 296 299 301 302 304 309 314 325 336 301 222 221 250 241 232 241 241 238 238 241 236 238 237 237 240 243 245 246 248 250 252 254 258 262 267 273 279 285 291 300 306
290 293 295 296 297 299 300 302 305 311 324 324 233 229 254 260 241 245 242 236 241 239 244 237 240 238 239 240 243 246 247 248 250 252 255 259 264 269 276 282 289 296 301
290 291 292 294 295 298 300 300 298 303 304 311 267 254 261 269 281 271 263 255 244 236 232 237 240 236 237 240 242 244 246 249 250 251 254 258 263 268 273 278 285 291 296
288 289 290 292 294 295 296 295 295 298 299 297 290 281 273 272 281 282 272 270 255 236 233 230 235 239 236 236 239 243 244 247 250 252 254 257 260 265 270 274 279 285 292
286 287 287 288 290 292 292 294 293 294 293 294 292 291 288 282 289 285 276 273 264 245 235 243 237 232 238 239 235 238 242 245 245 248 251 253 256 260 265 269 274 279 289
284 284 285 284 286 289 291 291 292 291 292 290 291 291 290 292 293 292 291 283 276 268 253 249 257 233 234 228 244 240 238 242 245 248 248 250 252 254 260 265 270 275 284
284 285 284 283 285 288 290 291 290 290 289 289 288 290 291 291 292 292 292 289 281 273 266 259 261 253 242 237 234 241 251 243 239 243 246 249 250 252 256 261 265 271 276
281 283 286 287 288 289 290 291 290 289 287 286 285 287 288 288 289 291 291 290 286 278 267 265 263 260 254 257 240 227 234 252 249 243 239 247 248 251 252 257 260 266 271
286 289 292 293 293 293 292 291 289 288 286 285 284 284 284 285 286 287 288 289 288 282 274 265 265 262 255 255 254 235 234 238 253 252 248 242 241 245 249 254 256 262 266
292 295 297 297 296 295 292 291 288 286 285 283 282 281 281 281 282 283 283 285 284 280 276 267 262 260 260 250 249 248 229 224 235 252 248 249 248 242 240 248 254 256 263
294 298 298 297 296 293 290 287 285 283 282 281 281 280 279 278 278 278 279 280 277 273 274 270 260 257 258 254 237 239 238 225 228 230 242 248 248 249 242 240 248 253 259
298 298 297 295 291 288 285 284 282 281 280 279 279 277 276 274 272 272 272 272 270 269 270 270 264 259 253 253 244 232 235 225 250 230 235 238 244 249 243 235 242 250 256
294 291 290 291 289 284 283 281 278 277 276 275 274 273 271 269 269 267 267 265 266 267 267 266 264 259 255 249 250 238 234 230 234 224 231 236 242 247 249 245 242 248 253
282 280 283 281 280 278 276 276 275 273 272 271 272 274 273 272 272 272 271 267 265 265 266 264 262 259 255 248 244 245 234 233 230 237 232 226 234 241 243 241 243 247 251
280 277 277 275 274 274 274 275 275 275 274 273 275 275 276 276 275 273 271 267 263 262 264 262 260 257 252 246 244 242 236 231 230 234 242 244 232 235 235 240 240 244 242
Height
5852 5851 5851 5851 5849 5847 5848 5849 5851 5854 5858 5864 5870 5873 5874 5876 5880 5881 5885 5887 5889 5890 5891 5892 5893 5893 5894 5894 5895 5896 5896 5896 5897 5896 5896 5895 5894 5893 5892 5890 5887 5884 5880
5847 5846 5845 5844 5843 5843 5840 5840 5840 5844 5848 5852 5860 5864 5868 5870 5873 5877 5878 5882 5884 5886 5887 5888 5889 5890 5891 5891 5892 5893 5893 5894 5894 5894 5894 5894 5893 5892 5890 5888 5885 5882 5878
5841 5840 5839 5838 5836 5834 5834 5831 5830 5832 5838 5841 5845 5853 5858 5862 5866 5869 5872 5874 5878 5880 5883 5885 5886 5887 5887 5888 5888 5889 5890 5890 5891 5891 5891 5891 5890 5889 5888 5886 5882 5880 5876
5835 5834 5832 5831 5830 5827 5824 5822 5820 5819 5824 5830 5834 5840 5848 5852 5856 5860 5864 5866 5870 5873 5876 5880 5882 5883 5884 5884 5885 5886 5887 5887 5887 5887 5888 5888 5887 5886 5885 5883 5880 5877 5873
5827 5826 5825 5823 5822 5819 5816 5813 5810 5809 5811 5816 5822 5828 5834 5841 5845 5851 5856 5859 5861 5865 5869 5872 5875 5878 5880 5880 5881 5882 5883 5884 5884 5885 5885 5884 5884 5883 5882 5880 5877 5874 5869
5818 5817 5815 5814 5812 5811 5808 5804 5800 5798 5797 5801 5809 5816 5822 5828 5834 5839 5845 5850 5854 5857 5860 5864 5867 5870 5873 5875 5876 5877 5878 5879 5880 5881 5881 5881 5880 5879 5878 5876 5873 5870 5866
5809 5807 5807 5806 5803 5800 5798 5794 5791 5787 5783 5786 5792 5802 5808 5817 5824 5827 5833 5838 5844 5848 5852 5855 5859 5862 5865 5867 5869 5871 5873 5875 5875 5876 5876 5876 5875 5875 5874 5872 5869 5866 5862
5802 5800 5799 5797 5794 5790 5787 5784 5780 5776 5770 5771 5781 5789 5796 5805 5811 5817 5820 5827 5832 5837 5842 5845 5848 5852 5856 5859 5861 5863 5866 5868 5870 5870 5871 5870 5870 5870 5870 5868 5866 5863 5859
5795 5793 5791 5789 5786 5783 5780 5775 5770 5764 5755 5755 5763 5776 5783 5788 5797 5801 5808 5815 5820 5824 5829 5834 5838 5842 5845 5848 5852 5855 5857 5861 5863 5864 5864 5865 5864 5864 5864 5863 5861 5859 5855
5787 5786 5784 5782 5779 5776 5773 5768 5761 5756 5747 5741 5747 5762 5768 5777 5785 5791 5793 5798 5805 5811 5817 5821 5826 5830 5834 5838 5842 5846 5848 5851 5854 5856 5857 5859 5859 5858 5858 5858 5856 5854 5850
5779 5777 5776 5775 5773 5771 5767 5763 5758 5749 5739 5731 5737 5748 5756 5763 5773 5781 5785 5790 5797 5801 5804 5810 5813 5818 5823 5828 5832 5836 5839 5841 5845 5848 5850 5851 5852 5852 5852 5851 5851 5849 5845
5771 5769 5768 5767 5766 5764 5761 5759 5756 5749 5741 5730 5733 5742 5752 5754 5763 5770 5776 5779 5785 5789 5794 5799 5803 5806 5811 5816 5821 5825 5828 5831 5835 5838 5841 5843 5844 5845 5846 5846 5845 5844 5841
5762 5761 5759 5759 5757 5756 5755 5753 5752 5750 5746 5740 5742 5749 5748 5747 5753 5758 5759 5765 5771 5775 5780 5787 5791 5794 5797 5801 5806 5812 5816 5819 5823 5828 5831 5834 5836 5838 5839 5840 5839 5838 5836
5751 5751 5750 5749 5749 5747 5746 5745 5744 5744 5745 5744 5746 5749 5748 5745 5741 5743 5747 5747 5755 5761 5766 5772 5773 5775 5781 5787 5791 5797 5803 5808 5811 5816 5821 5825 5828 5830 5831 5833 5832 5832 5830
5741 5741 5740 5740 5739 5738 5737 5736 5736 5734 5735 5737 5739 5739 5736 5737 5737 5734 5736 5737 5741 5744 5751 5755 5760 5761 5762 5770 5776 5784 5790 5795 5799 5805 5811 5815 5819 5822 5822 5825 5825 5825 5825
5731 5730 5730 5729 5729 5728 5727 5727 5727 5726 5725 5726 5727 5727 5729 5728 5723 5724 5725 5725 5730 5733 5736 5740 5746 5752 5753 5753 5757 5766 5774 5780 5785 5791 5798 5804 5807 5812 5813 5815 5817 5818 5818
5720 5719 5718 5717 5717 5716 5717 5717 5717 5717 5716 5715 5714 5714 5714 5714 5713 5713 5711 5711 5712 5715 5724 5728 5733 5737 5743 5745 5745 5749 5755 5765 5772 5778 5785 5792 5796 5800 5804 5806 5809 5809 5810
5708 5706 5705 5705 5704 5703 5704 5704 5704 5704 5703 5703 5701 5700 5698 5697 5698 5698 5699 5699 5701 5702 5705 5712 5716 5721 5727 5734 5737 5736 5741 5748 5755 5762 5770 5778 5785 5789 5793 5795 5800 5801 5802
5693 5693 5693 5692 5691 5690 5690 5689 5689 5689 5689 5688 5687 5685 5683 5682 5680 5681 5681 5684 5687 5688 5687 5690 5696 5702 5713 5716 5722 5728 5731 5733 5740 5745 5752 5764 5771 5778 5782 5786 5790 5791 5793
5680 5679 5678 5677 5676 5674 5673 5673 5673 5672 5672 5671 5671 5670 5669 5667 5666 5665 5663 5662 5664 5669 5671 5671 5675 5678 5691 5698 5705 5712 5716 5720 5725 5732 5739 5746 5756 5765 5772 5775 5780 5781 5784
5663 5662 5661 5659 5658 5656 5656 5655 5655 5654 5653 5652 5652 5652 5652 5651 5650 5648 5648 5647 5646 5645 5651 5655 5657 5660 5666 5675 5685 5693 5699 5704 5714 5718 5723 5732 5742 5751 5758 5763 5767 5770 5773
5646 5644 5643 5641 5639 5638 5637 5636 5635 5634 5632 5631 5630 5629 5629 5630 5629 5628 5627 5627 5627 5628 5628 5634 5639 5643 5648 5650 5661 5670 5682 5686 5699 5705 5708 5717 5725 5737 5744 5750 5754 5758 5763
5628 5625 5622 5621 5619 5617 5617 5614 5612 5612 5611 5608 5607 5607 5606 5605 5605 5605 5605 5605 5607 5606 5607 5611 5620 5623 5628 5629 5639 5651 5662 5668 5679 5690 5694 5701 5710 5723 5728 5734 5741 5747 5752
5605 5603 5601 5599 5597 5594 5593 5592 5590 5589 5588 5586 5584 5583 5583 5582 5581 5582 5582 5583 5584 5584 5587 5589 5595 5603 5606 5612 5616 5626 5637 5647 5663 5673 5679 5689 5695 5708 5714 5719 5728 5735 5740
5581 5579 5577 5575 5573 5569 5567 5567 5566 5565 5563 5562 5561 5560 5560 5559 5557 5556 5560 5562 5562 5563 5562 5566 5571 5581 5585 5590 5594 5602 5615 5624 5642 5653 5660 5671 5681 5690 5699 5705 5714 5721 5726
5557 5555 5553 5552 5549 5546 5541 5540 5540 5541 5541 5539 5538 5537 5536 5534 5532 5533 5534 5536 5540 5540 5541 5544 5549 5557 5563 5568 5573 5583 5592 5604 5618 5633 5644 5654 5664 5674 5682 5692 5700 5708 5713